Weather Roundup
Issued by NWS Chicago, IL

Home | Current Version | Previous Version | Graphics & Text | Print | Product List | Glossary On
Versions: 1 2 3 4 5 6 7 8 9 10 11 12 13 14 15 16 17 18 19 20 21 22 23 24 25 26 27 28 29 30 31 32 33 34 35 36 37 38 39 40 41 42 43 44 45 46 47 48 49 50
000
NZUS59 KLOT 010403
HRRLOT

CHICAGO AREA WEATHER ROUNDUP
NATIONAL WEATHER SERVICE CHICAGO/ROMEOVILLE IL
1100 PM CDT SAT APR 30 2016

NOTE: "FAIR" INDICATES FEW OR NO CLOUDS BELOW 12,000 FEET WITH NO
SIGNIFICANT WEATHER AND/OR OBSTRUCTIONS TO VISIBILITY.

* THESE STATIONS ARE NOT UNDER NWS QUALITY CONTROL. THEY ALSO MAY NOT
  REPORT WEATHER SUCH AS PRECIPITATION OR FOG.

ILZ005-006-012>014-019>023-010500-
NORTHEAST ILLINOIS

CITY           SKY/WX    TMP DP  RH WIND       PRES   REMARKS
OHARE          DRIZZLE   45  44  97 NE15      29.92F FOG
MIDWAY         DRIZZLE   47  44  90 NE16      29.91F FOG
AURORA         CLOUDY    47  45  93 NE16      29.91S FOG
LANSING*       DRIZZLE   46  46  99 NE13      29.89F
WAUKEGAN       CLOUDY    44  44 100 NE16G24   29.93F
DUPAGE AIRPORT CLOUDY    46  42  86 NE14      29.92S
WHEELING       LGT RAIN  44  43  96 NE15G22   29.95F FOG
MORRIS*        DRIZZLE   47  46  95 NE5       29.88F
$$

WIZ051-052-058>065-066-070>072-010500-
SOUTHEAST WISCONSIN

CITY           SKY/WX    TMP DP  RH WIND       PRES   REMARKS
MILWAUKEE      CLOUDY    44  42  93 NE15      29.98F
KENOSHA*       CLOUDY    45  43  93 NE20G26   29.95F
RACINE*        CLOUDY    44  41  89 NE17      29.98F
BURLINGTON     CLOUDY    44  43  97 NE12G18   29.95F
$$

INZ001>003-010>013-019-020-010500-
NORTHWEST INDIANA

CITY           SKY/WX    TMP DP  RH WIND       PRES   REMARKS
GARY*          NOT AVBL
MICHIGAN CITY* NOT AVBL
RENSSELAER*    NOT AVBL
VALPARAISO     CLOUDY    48  47  96 NE10      29.89F FOG
$$

LMZ740>746-010500-
SOUTHERN LAKE MICHIGAN

STATION/POSITION TIME  SKY/WX   TEMP WIND        PRES    VSBY
                                AIR  DIR/SP/G
                 (UTC)          (F)  (DEG/KT/KT) (MB)    (MI)
HARRISON CRIB    0300            45   40/ 21/ 24   N/A
BURNHAM HARBOR   0400            44   20/ 15/ 17   N/A
CALUMET HARBOR   0306            45   30/ 14/ 18 1012.8S
BURNS HARBOR     0309            47   50/ 15/ 18 1013.2S
MICHIGAN CITY    0300            47   30/ 13/ 15   N/A
$$

ABBREVIATIONS USED IN REMARKS
   TC - TEMPERATURE IN CELSIUS
  WCI - WIND CHILL INDEX
   HX - HEAT INDEX
  VSB - VISIBILITY
$$




USA.gov is the U.S. government's official web portal to all federal, state and local government web resources and services.